Theta_e
362 365 360 357 359 354 348 343 315 317 320 310 312 314 313 324 326 323 323 325 322 329 332 332 331 332 329 328 331 333 334 326 327 317 318 339 353 353 356 358 358 356 353 355 357 358 360 358 361 363 361 362 363 364 365 365 365 364 364 363 364 364 364 364 364 364 364 364 364 364 365 365 365 365 365 365 366 365 365 365 364 364 364 364 365 365 366 366 366 366 367 367 367 367 367 367 367
365 363 358 356 348 344 340 340 319 315 315 311 311 314 317 325 325 322 322 325 326 329 334 334 337 338 337 337 338 336 332 335 337 336 341 348 352 353 357 357 358 356 353 355 355 356 358 361 361 361 362 362 365 365 364 365 365 365 364 364 364 365 364 364 364 364 364 363 364 364 365 365 365 365 365 365 365 365 365 365 364 364 364 364 364 364 365 365 366 366 366 366 366 367 367 366 366
363 359 355 354 344 344 342 333 313 311 310 307 312 316 322 322 322 325 326 328 333 335 336 336 336 335 333 335 331 332 324 338 338 341 340 349 344 349 355 357 359 358 356 355 355 355 357 359 361 363 362 363 364 363 363 365 365 365 365 366 365 365 365 364 364 364 364 364 364 365 365 364 365 365 364 365 365 366 366 365 364 364 364 364 364 364 364 364 364 364 365 365 365 365 365 365 366
362 359 350 346 339 341 331 323 316 313 309 310 312 318 321 322 322 326 332 334 335 335 334 332 331 337 334 330 332 337 333 333 339 340 339 343 346 353 355 359 360 358 357 356 357 356 357 359 361 362 363 364 365 364 364 365 365 365 365 366 366 365 365 364 364 364 364 364 364 365 364 364 364 364 364 365 365 365 365 365 364 364 364 364 364 364 364 363 363 363 363 364 365 364 365 366 366
358 356 350 343 340 333 329 319 315 315 308 311 310 317 321 324 327 330 331 334 334 334 333 333 332 337 339 335 336 331 332 339 339 344 342 348 355 357 358 360 360 358 357 358 358 358 357 358 360 361 363 365 365 365 365 365 364 364 363 364 364 364 363 363 364 364 364 364 364 364 363 363 363 363 364 364 364 364 364 364 364 364 364 364 364 364 364 364 363 362 362 362 363 363 364 365 366
353 350 348 346 337 338 325 316 314 312 314 317 315 318 324 329 329 329 328 330 332 334 335 333 330 331 333 335 340 335 339 332 340 343 346 348 355 358 359 360 358 357 357 359 360 359 359 358 360 361 363 363 363 364 364 364 364 364 365 364 364 364 364 364 364 364 364 364 363 363 363 363 363 362 362 363 363 364 363 363 363 364 363 363 363 363 363 363 363 363 363 362 362 362 364 364 365
342 343 344 342 337 334 318 314 313 314 314 317 319 322 326 328 328 328 327 328 331 333 335 332 336 336 331 338 341 344 347 344 341 344 350 352 357 359 359 358 358 358 358 359 359 359 359 357 359 361 363 363 364 365 365 365 365 365 364 364 363 364 364 364 364 364 364 363 363 362 363 363 362 362 362 361 362 362 362 362 362 362 362 362 362 362 361 361 361 362 362 361 361 361 361 363 363
349 340 340 325 317 321 315 314 315 318 313 317 324 325 327 327 327 327 326 326 324 326 332 334 335 332 332 339 331 343 347 348 347 352 354 354 356 358 359 359 355 357 358 359 360 359 358 357 360 361 362 363 364 366 366 365 365 365 365 364 364 363 363 363 364 364 364 363 363 363 363 363 362 362 362 362 362 362 362 362 362 362 362 362 362 363 362 361 360 360 361 360 360 360 360 361 363
345 343 338 327 315 314 313 312 312 317 315 322 324 328 330 328 328 327 326 327 328 330 330 333 333 329 333 335 335 342 345 349 351 354 353 354 355 357 357 358 357 357 358 359 359 358 357 358 360 360 362 363 364 364 364 364 365 365 365 364 364 363 362 364 364 364 364 363 363 363 363 363 363 362 363 362 362 363 362 362 362 361 361 361 362 362 362 362 361 361 360 360 360 359 358 359 360
342 339 325 318 317 312 311 312 312 311 315 323 324 325 327 328 328 329 326 325 328 335 336 337 336 331 335 331 336 341 342 350 352 351 353 353 355 357 357 358 359 357 358 359 359 357 357 360 361 362 363 364 365 364 364 364 364 365 364 364 364 364 363 363 363 363 364 363 363 363 363 363 363 363 363 363 363 363 363 362 361 361 361 361 361 361 362 361 361 361 360 360 359 358 358 357 358
332 336 330 318 313 311 310 311 312 314 318 324 325 328 328 330 330 329 330 328 333 332 336 339 334 335 336 334 337 347 349 351 349 347 351 354 355 355 356 360 359 359 358 360 358 361 361 362 362 363 364 364 364 364 364 365 365 364 364 364 363 363 363 362 362 362 363 363 363 363 364 364 364 364 364 363 363 363 363 362 362 361 361 361 361 361 361 361 360 360 360 360 360 360 358 358 357
328 325 326 314 311 311 310 310 312 316 320 323 323 327 329 330 331 328 327 326 330 331 329 336 332 338 333 334 336 343 347 348 347 350 352 354 354 355 356 357 360 360 360 360 361 359 361 363 363 364 364 365 364 364 365 365 365 364 364 364 363 363 362 362 361 362 362 362 363 364 364 363 364 363 363 363 363 363 363 363 362 361 361 360 360 361 360 361 361 360 360 359 360 359 359 358 358
330 320 317 314 311 311 310 311 313 317 318 319 323 325 331 329 328 329 330 330 331 329 328 336 341 340 330 333 340 343 343 346 349 350 352 353 354 355 356 356 359 360 361 362 361 362 361 363 362 364 364 365 364 363 364 364 364 365 364 364 363 363 363 362 362 362 361 361 361 362 363 363 363 363 363 362 362 361 361 361 361 361 360 360 359 360 359 360 360 357 359 359 358 357 358 358 359
331 325 319 312 313 311 311 312 315 314 315 319 324 327 329 329 331 334 332 328 328 328 337 342 342 341 335 337 337 338 342 348 349 351 352 354 355 355 355 356 357 358 361 362 361 364 365 364 361 361 364 366 366 363 364 363 364 364 364 364 364 363 363 363 363 362 362 361 362 363 363 363 362 362 362 362 362 361 361 361 361 361 360 360 359 359 359 358 357 356 356 357 357 359 359 357 356
331 324 318 316 311 311 311 312 313 315 315 321 324 327 329 332 334 334 331 329 332 340 344 347 342 336 327 333 332 337 342 347 349 351 352 354 355 355 355 357 357 359 359 360 362 363 363 364 364 363 365 363 364 363 363 363 364 364 364 365 365 365 365 365 364 364 363 363 363 362 362 363 362 362 362 362 361 361 361 361 361 360 359 360 358 357 357 357 356 357 354 355 354 357 356 355 355
336 320 316 314 310 311 311 313 314 315 316 323 326 330 330 332 335 330 330 335 336 340 340 335 343 333 335 338 338 343 345 347 348 351 352 353 354 354 354 355 356 357 359 359 360 362 363 364 365 363 363 362 361 364 364 364 363 365 364 365 365 365 366 366 365 364 363 363 363 363 363 363 363 363 363 362 362 361 361 361 360 360 358 357 355 356 358 359 356 356 354 352 354 355 357 354 352
326 323 312 312 310 312 313 315 316 312 321 324 329 328 326 327 333 336 341 341 334 336 341 343 336 344 342 343 345 346 347 348 350 350 351 351 350 348 349 353 354 355 357 358 360 361 363 364 366 365 368 362 363 362 365 365 364 363 364 364 364 365 365 364 365 364 364 363 363 363 363 365 366 365 364 364 362 363 361 359 360 360 358 356 352 355 355 356 358 356 354 351 352 351 356 354 352
324 315 312 311 312 313 316 317 318 323 321 324 326 328 328 325 331 334 339 337 339 340 341 344 347 346 348 348 348 347 347 347 349 347 346 346 349 345 344 348 350 350 353 355 359 360 361 364 366 367 367 368 367 363 363 363 365 364 365 365 365 364 364 363 364 364 363 364 363 363 365 365 364 366 366 363 365 364 362 360 360 359 357 357 355 355 354 355 357 357 354 352 353 353 355 358 357
319 310 313 310 310 311 318 320 322 323 323 325 327 330 329 328 331 332 329 331 335 335 339 342 340 343 346 346 346 345 346 347 347 347 346 346 345 344 344 347 349 350 351 354 356 359 361 362 364 367 367 367 366 367 366 365 367 368 366 367 366 363 364 364 365 365 365 364 364 364 365 365 365 366 366 365 365 363 363 362 361 360 357 357 356 355 354 355 357 358 357 355 353 353 356 360 358
316 313 309 309 312 314 316 322 324 327 328 326 326 328 330 329 331 334 328 329 332 333 334 337 338 337 341 343 344 344 346 347 348 346 344 346 347 345 346 346 347 350 351 354 355 360 360 360 363 364 366 366 365 365 367 368 369 367 365 366 367 367 367 366 367 368 368 365 364 365 364 365 365 365 364 364 364 365 363 362 362 360 359 358 359 357 355 356 356 357 357 357 356 355 356 357 358
315 312 311 312 313 318 320 325 327 329 330 327 328 329 328 330 332 332 329 326 327 334 339 338 337 339 340 342 343 344 346 346 347 346 345 346 347 346 347 348 348 351 353 356 357 358 360 361 362 363 365 366 365 365 366 366 367 366 366 365 367 366 364 366 364 366 367 367 366 364 363 365 365 364 364 363 363 363 363 362 362 362 364 361 359 361 360 359 358 361 358 357 359 356 356 357 358
313 308 309 314 312 319 322 326 327 328 330 329 328 326 326 334 333 330 329 324 324 329 337 343 342 342 341 341 343 346 345 345 346 346 346 345 345 347 348 350 352 353 355 353 355 357 359 362 362 362 364 366 366 364 363 366 365 364 365 367 366 366 364 363 364 365 365 366 366 363 363 364 364 363 363 362 362 363 362 360 362 362 361 362 364 363 361 361 360 360 358 359 359 358 357 360 359
310 310 309 314 318 322 325 327 327 329 328 327 327 330 332 331 330 333 332 330 332 338 344 346 345 345 345 345 346 345 345 345 346 346 347 345 347 347 348 349 350 351 352 354 356 359 360 362 363 363 361 366 367 365 363 362 361 364 365 366 365 365 366 363 362 362 364 366 365 365 363 362 362 361 361 362 361 361 360 361 360 361 360 359 361 361 360 363 362 359 359 360 362 360 360 362 361
313 309 314 322 325 324 328 327 329 329 329 328 332 335 331 329 326 334 334 337 342 346 348 348 347 348 348 346 347 346 346 346 346 348 348 347 347 347 349 349 351 353 354 355 356 358 360 360 363 364 362 364 367 366 363 360 362 362 363 365 365 365 365 363 361 362 365 364 366 365 364 362 360 359 360 360 361 361 360 361 361 360 359 360 360 360 358 359 360 360 361 361 360 359 356 359 358
312 313 319 324 326 327 330 331 333 333 333 334 333 331 332 333 330 333 333 339 343 345 348 348 347 347 347 347 347 347 348 348 348 350 351 352 350 349 350 351 353 354 352 354 355 357 359 360 361 361 361 362 363 365 362 362 362 363 364 364 364 363 365 362 362 364 364 364 365 366 366 361 360 359 359 360 361 360 361 362 360 358 360 359 360 360 360 359 360 360 361 360 359 358 357 356 356
310 312 322 325 326 330 333 334 334 334 334 334 331 330 332 333 335 332 335 339 343 346 347 347 347 345 345 346 348 349 349 348 350 350 350 353 353 350 350 351 352 352 353 355 355 357 359 360 359 360 361 361 361 360 361 361 363 362 363 366 366 365 363 363 364 362 363 363 362 364 363 361 360 359 359 361 359 359 361 363 362 360 359 361 360 358 360 359 358 359 360 360 360 358 357 357 357
320 323 325 326 328 330 333 332 333 334 334 335 331 330 332 334 330 325 337 340 343 343 344 346 346 345 346 346 348 349 349 348 350 352 352 352 352 353 352 352 352 353 356 356 356 358 359 359 359 361 361 363 362 360 361 362 363 362 362 362 363 363 362 363 362 361 361 361 363 364 364 363 361 361 360 360 359 359 360 361 361 361 359 359 362 361 362 361 361 359 359 357 359 358 356 358 358
325 327 327 328 329 331 332 333 332 334 331 336 333 330 333 333 332 329 335 341 343 341 342 344 345 346 347 348 348 350 351 352 352 352 350 350 350 351 353 353 354 355 355 355 357 361 358 358 358 360 360 361 362 360 362 362 362 362 362 362 361 362 363 361 361 361 361 361 363 362 363 362 362 361 362 361 360 360 360 359 359 359 358 359 361 361 362 362 361 361 361 360 360 359 358 357 359
326 327 322 325 328 327 330 329 330 332 330 335 332 324 326 330 327 332 337 340 341 340 340 342 343 345 347 349 348 348 349 351 352 351 352 353 354 355 354 356 356 356 357 357 359 359 357 358 358 359 360 361 361 359 359 360 361 361 361 361 362 360 361 361 360 360 362 363 364 363 363 364 364 363 363 363 362 360 359 360 358 359 359 360 361 363 364 362 360 359 359 361 359 358 357 357 358
327 326 324 322 323 323 327 327 329 329 329 333 328 310 320 327 330 333 337 339 339 338 338 340 341 344 346 348 347 348 349 350 351 352 354 355 356 357 356 358 359 359 359 360 361 359 359 359 358 358 359 358 359 360 361 360 360 360 361 361 362 362 361 361 360 362 363 364 365 366 364 364 363 362 363 364 362 359 360 360 359 358 359 363 363 364 360 359 357 357 357 358 356 355 354 356 355
320 320 325 320 317 317 327 325 329 326 332 331 328 312 319 328 330 334 337 338 337 336 337 337 339 342 344 347 347 347 348 351 352 354 355 357 357 358 359 361 361 361 361 360 360 361 360 359 360 359 360 360 360 360 361 361 362 359 360 360 360 361 361 359 360 361 362 363 364 363 364 363 361 360 360 360 359 360 358 358 359 359 360 363 362 362 361 359 359 357 356 354 355 354 354 355 354
321 317 314 317 316 318 324 324 327 323 329 330 326 314 320 330 331 334 336 337 337 335 336 336 337 339 342 344 346 347 349 350 352 352 354 356 357 358 359 360 361 361 361 361 361 362 360 360 361 359 360 360 360 361 362 362 362 362 362 361 361 361 360 360 361 362 362 363 363 362 362 362 361 356 356 356 357 358 357 357 358 360 363 363 361 361 362 358 359 358 357 355 352 352 353 352 354
312 313 312 314 316 317 319 323 324 329 325 329 326 315 326 328 333 335 336 335 336 335 335 336 336 337 339 341 343 345 346 348 350 352 354 356 357 358 359 361 360 361 361 362 361 362 362 362 361 359 359 360 361 362 363 362 362 361 361 361 360 362 360 360 362 364 364 363 364 365 364 361 358 357 352 352 355 356 356 356 358 360 362 361 358 360 359 359 359 356 358 357 354 353 352 351 352
311 307 313 314 314 317 315 319 322 326 326 322 329 323 326 331 334 335 336 335 335 334 335 335 336 337 339 340 341 342 343 345 346 350 352 355 357 358 359 359 360 361 361 361 361 361 362 361 360 360 361 361 362 361 362 361 362 361 361 360 361 360 361 361 362 362 361 363 365 363 364 362 358 357 356 349 355 358 358 358 357 359 360 356 354 356 356 359 360 358 357 358 356 354 351 351 351
308 306 308 308 309 317 316 315 321 325 325 322 326 326 327 332 334 335 336 337 335 334 335 336 336 337 339 339 340 341 342 343 346 349 350 354 354 356 357 357 358 359 359 359 360 361 361 362 361 361 360 360 361 364 364 363 362 362 360 360 360 360 361 362 362 360 360 361 361 361 360 358 358 359 357 358 355 356 356 357 359 358 355 353 353 352 353 355 357 358 357 357 358 356 352 353 354
309 307 308 310 308 311 314 318 320 325 322 321 322 322 328 331 333 335 337 337 336 336 338 338 338 338 340 340 340 341 342 342 348 349 350 352 354 355 355 355 356 356 357 358 358 359 360 361 362 361 361 361 362 363 364 363 361 355 351 352 351 352 356 357 358 357 357 356 358 358 358 358 357 356 357 358 357 356 357 358 358 357 356 354 351 353 351 351 353 352 354 355 355 355 354 352 352
307 306 306 307 308 310 314 317 322 326 322 320 322 328 329 331 333 335 337 338 337 337 336 337 338 338 339 340 340 342 343 344 350 349 350 351 352 353 354 354 354 356 357 357 358 358 360 359 360 359 360 361 362 363 361 362 359 352 348 346 347 350 352 355 354 355 357 358 358 358 359 359 358 358 358 359 360 359 358 358 359 357 358 357 353 352 353 354 351 345 347 351 350 354 351 351 351
307 306 305 304 307 308 313 317 320 321 320 320 326 328 329 331 334 335 337 336 333 335 336 337 338 339 340 341 342 343 346 348 348 348 348 349 351 352 353 354 355 353 356 357 358 359 360 360 359 360 360 360 361 361 364 361 357 355 350 349 351 351 351 351 352 354 354 354 357 358 358 358 358 357 357 358 356 357 357 356 356 357 356 356 355 353 352 351 347 344 345 347 352 346 350 351 351
305 305 305 304 306 314 315 317 320 322 321 321 326 325 327 330 333 335 336 335 337 338 338 338 339 339 341 341 343 344 344 345 347 348 348 349 350 351 353 353 354 355 356 356 358 358 359 359 360 358 359 360 362 362 361 355 359 351 349 352 352 353 356 354 354 355 355 354 355 356 355 356 356 356 356 356 355 355 355 355 355 356 356 357 351 348 346 344 345 346 347 348 345 346 347 353 352
305 304 304 303 309 309 308 314 321 323 321 321 325 323 324 328 332 334 336 336 336 337 337 337 338 340 340 341 343 343 344 345 345 347 347 348 350 351 352 353 354 354 354 355 356 357 358 358 359 358 357 360 363 363 362 362 359 358 356 356 357 355 354 355 355 355 354 355 356 358 356 357 357 356 355 354 355 356 357 355 355 356 357 356 348 346 344 343 345 346 349 350 344 342 345 346 351
305 306 306 306 310 311 313 313 321 324 325 327 324 321 321 325 327 329 334 335 334 336 336 337 338 339 341 344 344 345 345 346 346 347 349 349 350 350 352 353 354 353 354 354 354 356 356 358 358 359 359 359 360 359 359 358 358 355 355 354 354 352 353 351 349 351 354 356 354 356 355 356 356 356 355 355 355 355 354 354 355 355 357 351 345 344 344 345 346 348 349 348 343 342 343 346 349
305 307 308 309 313 313 316 318 316 315 315 323 320 310 312 321 324 327 331 332 332 335 335 335 337 338 339 340 342 344 346 348 347 348 348 350 351 353 353 355 354 354 354 355 355 354 358 355 353 357 358 359 358 357 356 356 354 353 351 349 346 346 344 346 346 347 347 349 348 352 354 355 354 354 355 354 354 353 353 352 353 352 354 349 344 343 343 344 346 348 349 346 344 345 344 346 343
306 308 308 313 314 316 316 316 315 309 308 318 322 309 306 317 320 324 328 329 331 333 334 335 336 337 337 340 342 343 344 344 346 347 348 348 350 351 352 353 355 352 353 353 354 355 355 355 356 357 356 355 358 357 356 355 352 351 350 350 349 347 345 346 349 349 349 350 351 349 350 351 351 350 351 352 351 351 351 349 350 351 351 351 346 345 345 344 346 348 348 344 340 343 343 340 343
307 306 313 314 316 315 316 315 313 314 318 318 317 313 308 308 316 324 327 327 329 330 332 334 335 336 336 339 340 343 344 345 344 345 347 349 350 350 350 352 353 349 347 349 350 353 354 354 354 354 353 353 355 356 356 356 352 351 349 348 347 346 344 344 347 347 348 348 346 346 347 347 348 348 348 348 349 349 350 349 348 349 349 348 349 345 344 346 347 348 346 342 343 343 342 339 340
304 305 315 316 317 317 317 315 313 313 314 312 315 313 308 306 314 322 326 323 326 327 330 332 335 335 336 338 339 342 344 345 344 343 344 345 346 346 349 348 347 345 345 347 349 350 351 352 351 350 350 350 351 352 351 351 350 348 347 347 345 344 346 346 345 346 345 346 344 344 344 344 345 346 346 347 347 347 348 348 347 348 348 348 350 347 345 346 347 346 343 342 341 342 341 342 342
303 310 314 313 314 312 313 313 313 311 309 305 312 313 306 306 312 317 323 323 323 326 329 332 335 335 336 336 338 340 344 345 344 343 344 344 343 342 342 344 342 343 347 350 349 349 348 348 348 349 347 348 350 352 351 350 349 349 346 346 343 345 346 344 344 343 344 345 342 343 343 344 344 345 346 345 344 346 346 347 347 348 350 349 349 346 344 343 343 343 344 344 342 339 340 342 341
310 313 311 310 310 310 310 309 312 309 302 305 313 313 309 301 311 316 317 319 324 327 330 333 336 336 337 337 338 339 341 344 343 342 342 342 340 339 339 339 343 345 348 348 346 346 345 346 347 345 345 347 349 348 348 347 348 347 346 344 344 344 343 342 340 341 343 343 342 342 342 342 343 344 344 345 345 346 346 347 347 349 349 348 347 346 344 344 343 342 343 344 343 339 339 340 342
309 308 308 307 306 310 308 307 309 303 299 304 303 313 311 300 305 316 324 327 327 328 328 330 332 334 336 337 337 339 341 343 343 341 340 339 338 337 339 340 342 346 347 346 344 344 343 344 346 343 343 345 346 347 348 349 349 349 348 347 346 346 344 342 341 340 340 338 339 339 340 340 342 343 343 343 344 344 344 344 346 347 347 346 345 346 347 346 344 344 344 344 343 340 341 339 340
308 307 307 303 299 302 297 301 298 298 298 302 303 309 307 306 311 319 321 326 327 329 329 331 332 334 336 337 338 339 341 342 342 341 340 337 335 335 337 341 344 345 345 345 345 342 343 344 345 344 342 345 345 346 345 345 346 347 347 346 346 347 346 344 341 340 340 338 339 339 339 338 340 339 341 342 343 343 343 344 344 344 344 345 346 347 347 347 345 345 345 342 342 339 339 337 336
306 305 307 303 296 295 292 296 298 297 301 301 304 311 306 311 314 320 317 321 328 330 332 333 334 336 336 337 338 338 340 342 342 341 339 338 338 336 339 341 343 345 345 345 345 343 343 342 343 341 342 344 343 345 345 343 345 347 348 347 346 345 345 343 342 341 341 340 339 339 339 337 337 338 339 340 340 342 343 343 345 345 345 345 346 347 348 349 349 348 346 344 343 345 344 339 338
306 308 307 305 303 297 293 296 293 296 299 301 307 303 303 303 307 317 318 323 325 329 331 334 336 337 339 339 339 338 340 341 342 340 338 337 337 338 338 341 343 344 343 342 344 344 344 342 342 341 341 341 341 341 343 340 344 347 348 349 348 346 345 345 344 342 340 338 338 338 338 339 338 339 339 340 342 342 343 344 345 346 346 346 347 347 346 347 348 348 345 346 348 349 346 345 342
305 304 306 304 303 310 299 302 301 299 298 299 302 303 308 308 319 320 322 322 324 324 326 330 333 336 338 337 336 336 338 339 340 340 338 338 338 339 338 340 342 342 343 343 344 345 342 342 342 341 340 340 341 341 340 343 343 347 346 346 347 346 346 345 345 344 341 338 338 338 337 338 339 339 339 340 341 342 342 342 343 344 344 345 345 345 346 345 345 345 345 346 345 345 345 345 341
305 303 302 305 310 309 303 303 300 300 299 298 308 305 310 315 315 317 321 322 323 324 324 326 331 334 335 335 335 336 337 338 339 338 337 337 338 339 338 340 340 340 340 341 344 345 344 342 341 341 341 341 341 341 341 343 345 344 344 344 345 345 344 342 341 341 341 340 338 338 338 338 339 340 338 340 340 342 343 342 342 342 343 343 342 342 342 343 343 342 342 343 343 344 344 345 346
305 302 306 307 309 312 309 298 300 299 295 299 302 300 305 305 300 320 320 320 322 322 323 325 331 334 333 334 335 336 336 338 339 339 339 338 337 338 337 338 340 340 340 343 346 347 346 344 342 340 340 340 340 340 341 342 343 343 343 343 344 344 343 342 341 340 342 341 341 340 340 339 339 339 339 339 341 340 341 341 341 342 343 343 343 342 341 341 340 339 340 340 340 342 341 342 345
308 307 311 305 301 301 306 307 294 294 294 297 299 300 303 307 306 315 318 320 322 323 325 326 329 331 332 333 335 337 337 337 336 336 336 336 336 337 337 336 338 341 344 345 345 345 344 342 343 341 339 340 340 341 342 343 344 343 343 343 343 343 342 342 341 342 342 340 339 339 339 339 340 341 340 340 340 339 340 340 343 342 342 343 343 341 341 340 340 339 338 338 340 341 340 339 342
308 309 306 308 308 311 305 303 305 302 296 295 297 300 299 314 311 315 316 324 326 324 324 325 328 331 332 333 335 335 336 335 335 335 335 335 335 335 335 335 336 340 341 341 339 340 339 340 341 341 341 342 341 341 343 342 345 343 343 343 343 342 341 341 341 341 340 339 339 338 338 339 341 340 340 340 340 339 340 341 341 341 341 341 340 340 340 339 338 338 337 337 338 339 338 338 339
304 306 305 306 305 305 306 303 302 300 299 297 297 295 302 312 319 319 321 326 326 326 325 327 329 331 333 334 335 336 336 335 334 335 335 335 335 334 334 335 338 340 341 338 337 338 338 338 338 339 340 340 338 339 340 340 343 343 343 342 341 341 341 340 340 340 341 340 340 340 339 340 341 340 340 339 339 341 342 341 341 341 340 340 340 339 339 339 338 337 337 337 337 337 337 337 339
307 306 305 306 302 302 299 299 301 301 300 294 296 296 305 313 322 325 325 325 325 328 329 328 330 331 333 334 335 336 335 335 335 334 334 334 335 334 334 335 338 338 335 335 337 338 337 336 336 337 336 336 335 338 339 340 341 341 341 340 340 340 340 340 340 342 341 341 340 339 340 340 339 341 342 340 340 341 341 340 339 340 340 340 340 340 339 338 336 335 335 335 336 335 335 335 337
Wind_Speed
1 2 3 2 0 2 3 2 2 3 1 6 5 4 7 3 8 10 10 10 7 4 2 9 9 8 1 3 9 9 9 2 4 2 6 4 6 7 4 8 10 9 10 9 8 8 7 10 11 15 14 13 11 13 14 16 19 19 18 18 19 18 19 18 18 17 17 16 16 15 15 15 14 13 12 12 12 12 11 11 11 11 11 11 11 11 11 10 10 10 9 9 9 10 10 10 11
4 4 2 2 0 4 1 3 2 1 3 8 6 2 5 6 8 10 12 8 5 7 7 10 8 9 11 15 10 7 12 8 3 7 9 10 11 6 6 7 9 10 8 9 9 9 8 9 11 14 16 16 15 14 14 16 17 18 18 18 18 17 18 18 17 17 16 16 15 15 14 14 13 13 12 12 11 11 11 10 10 10 10 10 10 10 10 10 10 9 9 9 9 9 9 10 10
5 5 3 1 1 1 1 2 4 2 7 9 6 5 1 7 8 8 8 7 10 13 12 11 10 7 5 4 6 6 5 6 11 13 12 14 13 9 9 6 7 10 10 7 8 9 8 8 8 12 15 17 17 16 14 15 18 17 17 17 17 17 17 17 17 16 16 16 15 14 14 13 13 12 12 12 11 11 11 10 10 10 10 9 10 10 9 9 9 9 9 9 8 8 9 9 9
5 3 3 1 1 2 1 2 2 4 7 4 5 3 2 6 7 6 6 12 14 14 12 8 4 5 1 10 8 11 9 7 7 13 12 13 8 12 11 9 8 7 8 7 8 9 9 10 10 14 13 15 16 17 16 16 17 17 18 17 16 16 16 16 16 15 15 15 14 14 13 13 12 12 11 11 11 11 11 10 10 10 9 9 9 9 8 8 7 8 8 8 8 8 8 8 8
5 3 1 2 2 2 2 2 2 1 7 1 7 3 5 6 9 10 10 11 10 10 7 7 6 7 11 9 2 1 6 9 9 5 10 10 13 14 13 12 9 7 7 8 9 9 10 13 11 13 13 14 16 17 17 15 16 16 17 17 17 17 16 16 15 15 14 14 14 13 13 13 12 11 11 11 10 10 10 10 10 9 9 9 8 8 7 7 7 7 7 6 7 7 7 7 7
4 2 1 3 2 1 2 3 6 7 4 2 5 5 6 9 12 12 9 6 6 7 8 6 5 5 6 7 4 5 8 5 8 6 10 12 16 16 16 13 11 9 9 8 8 7 11 14 13 11 12 14 16 17 17 17 17 16 16 16 15 15 15 15 15 15 15 14 14 13 13 12 12 11 11 10 10 10 9 9 9 9 8 9 8 7 7 7 6 6 6 6 6 6 6 6 7
3 3 0 1 2 1 4 3 5 5 5 3 6 7 10 10 9 11 11 10 8 9 4 9 14 12 11 6 10 7 2 8 8 10 7 15 16 15 16 14 12 12 11 9 7 7 10 13 15 14 14 14 15 15 16 16 16 16 15 14 14 15 15 15 15 14 14 14 13 13 13 12 12 11 11 10 9 9 9 9 8 8 8 8 7 7 6 6 6 6 5 5 5 5 5 5 5
2 4 2 1 3 2 3 2 5 2 4 2 7 11 11 11 9 6 7 7 5 6 9 6 5 9 9 1 6 5 6 5 9 12 14 15 16 15 14 15 15 14 13 11 9 7 10 11 13 15 15 14 14 13 14 15 15 14 13 14 14 14 15 14 14 14 14 13 13 13 12 12 12 12 11 10 9 9 8 8 7 6 6 6 6 6 5 5 5 5 5 4 4 4 4 5 5
1 2 2 1 3 1 2 4 4 1 4 6 9 8 9 9 7 6 8 7 12 9 6 7 4 2 6 12 9 6 7 11 13 15 16 17 16 15 11 13 13 13 15 12 10 8 7 11 12 13 13 13 13 12 13 15 14 14 14 13 13 13 13 13 14 13 13 12 12 12 12 11 11 11 10 10 9 8 7 7 6 5 5 5 4 4 4 4 4 4 4 3 3 2 3 2 2
1 3 3 2 1 5 1 3 2 4 4 4 11 10 8 7 7 8 10 10 10 9 6 4 6 13 12 14 9 5 7 13 16 16 15 16 15 14 13 13 13 15 14 15 12 10 8 12 12 12 12 13 14 13 13 15 14 13 13 12 12 12 12 12 12 13 12 12 11 11 10 10 10 9 9 8 8 7 6 6 5 4 4 3 3 3 3 3 3 3 2 3 2 2 1 1 1
2 2 0 0 3 3 3 3 4 6 7 7 9 9 6 6 9 9 7 9 4 8 11 15 13 11 10 8 7 5 11 15 17 17 16 16 15 14 13 12 12 13 13 14 15 13 13 12 14 13 13 13 13 13 13 13 13 13 12 12 11 11 11 11 11 10 11 11 10 10 10 9 9 8 8 7 6 6 5 4 4 3 3 2 2 2 1 1 1 2 2 2 2 2 2 2 2
1 2 1 3 3 2 2 2 5 6 8 8 8 7 5 8 8 10 10 8 8 11 7 3 7 13 12 8 5 8 13 15 15 16 16 15 14 14 13 11 12 11 12 13 13 14 14 12 11 13 14 14 14 13 13 13 13 12 12 12 12 11 11 11 11 10 10 9 10 9 9 8 8 7 7 6 6 5 4 4 3 2 2 1 1 0 0 0 0 1 1 1 1 2 2 2 3
1 1 1 2 2 1 2 4 5 7 7 4 8 6 6 6 4 11 9 8 4 5 3 5 16 3 7 7 6 10 13 14 15 16 17 14 14 13 12 12 12 12 12 11 11 12 14 13 11 11 12 15 13 13 13 14 13 12 12 12 11 11 11 11 10 10 10 9 9 8 8 7 7 6 5 5 5 4 4 3 3 2 2 1 1 2 2 2 2 2 3 2 2 2 3 5 4
1 1 2 3 1 2 2 4 4 6 3 4 4 8 4 4 5 7 10 8 2 2 6 11 7 13 13 10 8 8 11 14 16 16 13 14 13 12 13 12 12 12 11 11 10 10 10 11 12 11 11 10 10 9 11 12 12 13 13 12 12 12 12 12 12 11 10 10 10 9 8 7 7 6 6 5 4 4 3 3 3 3 2 2 3 4 5 5 5 7 8 9 9 7 7 5 6
3 1 1 2 2 1 1 4 5 5 5 5 7 6 6 4 8 5 8 8 7 7 9 5 5 4 7 12 8 11 14 16 16 15 14 13 13 13 13 11 12 11 10 10 10 10 10 10 10 11 10 9 8 8 8 9 12 12 13 13 13 13 12 13 13 12 12 11 11 10 9 9 8 7 6 6 6 5 4 4 4 3 3 4 6 8 9 8 12 11 11 14 15 9 6 5 5
1 1 1 2 3 4 3 3 1 4 5 5 6 9 10 8 5 6 3 2 8 6 2 1 2 5 13 7 13 15 17 17 16 15 14 14 13 12 12 11 10 10 9 9 9 9 9 9 9 9 11 11 7 6 6 8 12 13 12 13 13 12 12 12 12 12 12 12 11 11 10 9 8 8 8 7 8 7 6 6 3 3 3 6 13 10 10 10 5 4 6 8 10 13 5 2 2
0 2 1 2 4 4 4 4 7 5 7 7 8 10 6 7 7 10 8 11 11 5 7 5 4 2 11 7 18 19 17 16 15 16 14 12 11 10 10 9 9 9 7 9 8 8 8 9 8 8 8 11 11 9 6 8 10 13 12 12 13 13 12 12 11 12 12 11 11 11 10 8 7 6 8 7 8 7 7 7 6 4 2 12 5 10 5 6 5 4 3 0 3 5 10 3 3
2 1 2 3 2 3 8 6 4 6 11 10 10 7 11 9 7 9 11 13 11 9 10 10 13 12 13 16 19 19 18 17 16 16 13 12 10 10 10 10 10 10 9 8 8 8 8 7 8 7 7 10 10 9 7 6 7 10 9 9 9 10 10 9 9 8 9 7 10 9 7 6 6 6 6 6 6 6 7 8 6 5 2 9 11 7 4 6 6 5 2 4 5 3 7 4 4
2 2 1 5 2 3 3 4 6 11 8 12 7 4 8 8 9 5 3 7 7 10 9 9 14 14 16 17 19 19 19 16 15 14 15 14 11 12 11 10 10 10 9 8 8 9 8 7 8 7 7 9 10 9 7 7 8 5 6 6 5 8 8 8 7 7 7 8 8 7 7 6 6 6 6 6 5 7 6 4 5 4 3 6 8 7 5 6 4 5 4 3 6 8 4 3 4
2 2 3 2 3 1 0 6 10 3 13 11 9 5 9 5 3 3 4 7 4 7 8 9 13 16 17 18 18 18 18 16 14 14 14 13 11 11 10 11 10 9 9 8 8 7 7 7 8 8 8 8 8 6 5 4 4 4 5 5 5 6 7 7 6 6 6 8 7 6 6 6 6 6 6 7 6 6 6 8 7 5 4 3 9 4 4 6 6 5 4 4 6 5 4 4 5
2 1 3 4 5 5 3 3 5 7 8 11 10 8 10 6 5 2 8 5 4 3 4 7 15 18 17 18 19 18 17 16 14 13 13 12 11 8 9 9 8 8 7 7 7 7 8 8 8 8 8 7 7 5 4 5 5 5 5 6 5 6 7 7 7 6 6 7 7 7 7 6 6 6 6 6 7 6 6 5 5 5 5 4 6 2 3 3 4 3 2 2 3 6 5 5 4
3 3 4 4 3 6 6 10 9 9 11 12 10 9 6 6 8 8 4 5 5 1 4 7 15 18 20 19 17 16 16 15 14 13 13 14 14 11 9 8 7 7 7 8 8 8 9 9 9 7 8 7 7 5 6 5 6 6 5 5 5 5 7 7 7 7 7 7 7 7 7 7 7 7 7 7 7 7 7 6 5 5 5 6 6 4 3 3 3 3 4 4 4 5 6 5 4
4 2 4 4 4 9 5 9 8 12 10 11 7 6 7 7 8 6 8 7 3 4 10 13 14 15 16 16 16 15 15 15 14 14 13 13 12 11 10 9 8 8 8 7 8 8 8 9 9 8 8 7 7 7 5 6 6 6 6 5 6 7 6 8 7 7 7 8 8 7 7 7 7 7 7 7 8 7 7 6 6 5 5 6 6 6 6 4 4 4 4 4 5 5 6 5 4
3 4 4 9 10 10 7 11 8 9 10 7 8 7 8 8 8 5 11 7 9 12 13 14 15 14 16 16 15 16 14 14 13 11 11 12 13 12 11 10 8 7 7 7 8 8 8 10 9 8 8 7 6 6 6 6 6 7 7 6 6 7 6 7 7 7 7 7 8 8 8 7 7 7 7 7 7 7 7 7 6 5 5 6 6 6 6 5 4 3 3 4 5 4 5 5 4
6 6 5 8 11 7 10 11 12 12 11 9 10 9 6 7 7 5 8 8 12 13 13 15 15 15 13 14 14 14 13 13 12 11 9 7 9 9 8 7 7 7 9 9 8 9 9 9 10 10 9 9 7 6 7 6 6 7 6 7 7 7 7 8 7 7 8 7 8 9 8 8 7 8 7 7 7 7 7 7 6 6 6 6 5 6 6 6 5 5 5 5 5 4 4 5 5
4 4 6 9 9 8 9 13 12 12 7 10 13 11 11 11 9 11 5 9 11 13 13 14 14 14 13 13 14 14 13 13 12 12 11 8 8 10 10 8 8 9 9 8 9 9 8 9 10 10 10 8 8 7 7 6 7 7 7 6 6 7 7 7 8 7 7 7 8 8 9 8 8 7 7 7 7 7 7 7 6 6 6 5 6 6 6 6 6 6 5 5 5 5 5 5 5
6 12 12 11 9 8 5 13 11 9 7 10 13 11 7 4 3 5 5 9 12 13 12 12 12 13 12 12 12 12 14 14 13 10 9 9 9 9 9 9 9 9 8 9 8 7 8 9 9 10 10 9 8 7 7 7 7 7 7 7 7 7 7 7 7 7 7 7 8 9 9 10 8 7 7 7 7 7 7 7 6 6 6 6 5 6 6 7 6 7 6 6 5 5 5 4 5
12 17 15 11 10 7 7 12 12 9 7 5 13 13 10 5 5 5 8 9 11 14 12 11 9 9 9 11 12 11 10 10 10 10 12 12 10 10 10 9 10 9 9 9 7 6 8 10 10 10 10 9 9 9 7 7 7 7 7 6 7 8 8 7 8 7 8 8 9 9 9 9 9 8 8 8 8 7 7 7 7 7 7 6 5 6 6 6 7 7 7 7 6 5 5 5 5
14 17 11 10 9 7 4 10 8 1 9 9 0 11 11 8 5 6 8 9 10 12 12 11 9 8 8 9 9 9 10 10 10 10 11 10 9 8 11 10 9 9 7 8 7 7 8 9 8 10 10 10 11 10 9 9 8 8 7 7 8 8 8 8 8 8 8 8 8 10 9 10 8 8 7 8 8 7 8 7 8 8 7 7 6 6 6 6 7 7 7 6 6 6 6 6 5
10 7 12 9 7 6 4 3 3 2 6 3 3 2 3 5 6 7 8 9 10 10 10 10 8 8 7 8 8 9 9 10 11 10 9 8 8 9 9 8 8 7 5 5 7 8 6 5 7 8 10 11 11 10 9 8 8 7 7 7 8 9 8 8 9 8 8 7 7 8 8 9 8 9 8 7 7 8 8 8 8 8 8 7 6 5 6 6 6 7 7 6 7 7 7 6 6
7 5 5 7 9 7 8 3 3 5 4 5 7 2 4 5 5 8 9 10 12 10 10 9 8 8 7 7 8 9 10 10 10 9 9 9 8 7 8 6 7 7 5 5 8 8 8 7 6 7 9 11 11 11 10 9 7 7 7 8 8 9 8 9 9 9 8 7 7 7 9 9 8 7 9 8 8 8 9 9 8 9 8 7 6 6 6 6 7 7 7 8 8 8 7 7 7
7 9 4 1 5 8 10 3 4 7 3 3 6 6 5 4 6 8 9 10 10 9 9 9 8 8 8 7 8 8 8 9 9 10 9 9 8 7 8 8 7 8 7 6 5 6 8 8 7 8 8 9 9 8 8 7 7 7 8 8 8 9 8 8 8 8 8 8 8 8 9 10 9 5 7 8 7 10 9 9 9 8 9 8 7 7 7 8 7 7 8 8 8 9 8 8 7
1 1 7 8 3 7 5 10 5 4 4 3 6 4 6 4 6 9 9 10 9 8 8 8 8 8 8 8 7 7 7 8 9 9 9 8 8 7 7 7 7 7 6 6 6 6 6 7 7 8 8 8 8 7 7 7 8 9 9 9 9 9 8 8 8 8 8 8 7 6 7 7 7 8 8 10 9 11 10 10 9 10 8 7 8 8 8 8 8 8 7 8 8 8 10 10 8
6 2 5 5 10 9 8 4 4 4 4 0 4 7 3 6 9 9 10 10 10 8 9 8 7 7 8 7 8 7 7 7 9 9 9 9 6 7 6 5 5 5 5 5 4 5 4 6 7 7 6 7 6 6 6 7 8 9 8 8 7 8 9 9 8 9 9 8 7 8 7 8 8 12 9 9 13 11 11 11 12 9 6 6 10 10 11 10 9 9 9 8 8 9 9 9 9
10 6 5 4 2 11 8 9 8 7 1 3 5 8 7 8 8 9 9 9 10 9 8 9 8 8 7 7 8 8 7 8 7 5 6 7 7 6 5 5 4 4 3 4 3 3 3 3 5 6 7 6 5 4 4 5 7 8 7 7 8 9 9 9 9 9 9 7 8 9 7 7 9 10 10 10 11 8 10 11 10 9 6 8 9 8 9 11 10 9 9 9 8 9 9 9 8
10 12 8 8 10 10 8 5 1 11 6 6 8 7 8 9 8 7 8 7 8 7 5 5 6 6 6 6 7 7 7 6 3 3 2 3 4 5 5 4 4 4 3 3 4 4 3 4 4 5 6 6 5 4 3 3 4 5 6 4 6 8 8 7 5 6 6 6 8 9 10 10 11 10 10 11 10 9 10 11 9 12 12 8 9 8 9 11 12 12 11 11 11 9 9 9 9
3 3 5 9 10 5 4 2 4 6 7 2 1 7 10 9 8 8 7 7 5 5 7 6 6 6 6 6 7 6 6 4 4 4 4 4 4 4 4 4 5 4 4 4 4 4 5 5 4 5 6 5 5 4 4 3 5 6 5 5 7 7 7 8 9 9 9 9 10 10 10 8 9 10 10 10 9 9 10 10 9 11 10 9 9 10 12 11 5 6 10 9 13 11 9 10 10
7 4 5 3 6 6 3 5 2 2 6 2 3 8 7 7 6 5 5 7 8 8 7 7 7 6 5 6 6 6 4 2 3 4 5 5 5 5 5 4 6 6 5 5 6 5 4 4 4 4 5 5 6 5 4 4 5 7 5 5 5 7 5 6 6 5 5 5 6 7 7 8 8 8 8 8 9 10 9 9 9 9 9 9 9 8 6 6 7 9 9 10 8 11 11 10 8
5 6 5 5 4 6 5 5 2 2 3 3 8 8 6 4 4 4 6 6 4 5 5 4 5 6 5 5 6 4 4 5 4 5 6 6 6 6 5 5 5 5 5 5 4 4 4 3 3 3 3 4 3 3 3 4 3 3 6 6 5 4 5 6 6 6 6 7 8 8 8 8 8 8 8 9 8 8 9 10 10 9 10 8 9 10 10 11 11 12 11 10 6 8 12 9 9
6 5 7 8 9 10 6 3 3 4 1 7 8 7 4 2 2 4 3 5 4 4 5 4 4 5 7 7 6 6 6 6 6 6 7 7 7 6 5 5 5 4 4 4 4 4 2 2 1 1 2 2 2 2 3 3 3 4 6 6 5 5 5 5 6 7 7 7 7 6 7 8 8 8 8 9 9 9 8 9 10 9 9 7 8 10 10 12 11 10 10 9 11 11 11 11 10
3 8 7 6 12 8 5 9 6 9 10 10 10 5 3 4 6 6 6 3 4 6 4 4 5 5 4 3 4 6 7 7 7 7 7 7 7 7 7 5 4 5 4 3 3 2 2 4 4 5 4 4 3 3 4 3 4 4 4 5 5 5 6 5 6 6 5 5 6 5 6 8 9 9 10 10 10 8 9 9 8 9 8 6 6 8 10 11 12 10 11 10 14 13 13 11 9
4 7 8 9 12 10 12 14 13 5 4 7 11 4 5 7 9 8 6 6 8 6 7 8 8 7 6 7 7 6 5 4 6 8 9 8 8 7 5 5 6 5 4 3 3 4 4 5 6 6 4 4 4 4 4 4 3 3 4 4 5 5 5 5 5 6 6 6 7 8 9 9 9 9 9 10 10 10 9 9 9 9 8 6 7 8 8 7 9 13 11 9 10 11 10 8 10
5 4 8 7 12 13 15 13 10 7 7 10 5 7 3 4 10 11 9 9 10 6 9 10 9 8 9 8 7 7 7 6 4 4 6 8 7 7 6 6 6 6 4 3 3 4 5 5 6 5 5 4 4 4 4 3 3 3 3 2 2 3 3 4 4 5 6 7 8 9 9 10 10 10 10 9 10 10 9 9 9 9 8 6 8 9 10 11 11 11 9 3 4 8 11 11 10
4 3 10 10 12 15 15 16 8 3 7 7 1 2 4 3 8 12 11 10 10 10 11 11 11 11 11 10 9 8 8 8 8 8 8 7 7 7 8 6 5 5 4 4 4 4 6 6 7 6 5 5 4 4 4 3 3 3 4 3 2 2 3 4 5 5 6 7 8 9 8 9 10 10 10 10 10 10 8 8 9 9 8 8 7 8 9 9 9 7 6 10 12 11 12 10 13
3 1 8 8 9 10 12 8 5 4 6 5 7 1 3 4 1 2 11 11 13 15 14 14 13 13 12 12 11 11 10 9 9 9 9 8 8 7 6 6 4 5 4 5 6 6 6 6 6 6 5 5 5 5 4 3 3 3 2 1 0 1 2 3 4 5 6 6 8 8 8 9 9 10 9 9 9 9 9 8 9 9 8 8 7 6 9 9 9 9 10 10 10 8 6 9 9
2 10 13 10 10 10 5 5 6 3 4 6 9 9 6 5 2 4 5 10 14 17 17 16 15 15 13 12 12 11 10 9 8 9 8 8 6 6 4 4 5 4 4 5 6 6 5 5 6 5 4 3 4 4 4 3 3 2 2 1 1 1 2 3 4 5 5 4 6 7 7 7 7 7 8 9 8 9 8 8 7 8 9 8 6 8 8 7 7 9 10 10 11 11 10 10 12
14 12 14 11 9 6 4 5 2 3 4 4 4 12 8 4 4 9 10 12 18 15 11 11 12 13 13 12 12 11 11 10 9 8 6 6 5 5 5 7 6 5 5 7 7 6 5 5 5 6 4 3 3 4 3 3 2 1 1 1 1 1 2 3 4 5 5 5 5 6 7 8 7 7 7 7 7 7 7 7 6 7 7 6 5 6 8 8 7 8 8 8 9 11 11 12 12
8 6 8 10 7 3 5 3 2 4 6 2 2 9 8 7 4 5 12 2 6 10 14 16 16 16 15 13 12 12 12 10 10 8 8 7 6 5 5 6 6 6 6 7 7 6 6 5 6 7 6 5 4 4 4 3 2 2 1 0 1 2 2 2 4 5 6 7 7 7 7 7 7 7 7 7 6 7 7 6 6 6 6 6 6 6 7 7 7 7 6 6 7 7 9 9 8
4 9 9 6 3 2 4 2 6 8 6 3 1 7 4 12 12 1 7 12 5 9 11 14 17 16 15 14 14 12 11 12 11 9 8 7 8 8 8 7 6 6 7 7 6 6 5 5 5 6 5 4 3 3 3 3 2 1 1 1 2 2 3 4 4 5 6 6 6 7 8 7 7 8 7 8 7 8 6 6 6 5 5 5 6 6 6 7 6 6 6 8 8 9 7 10 11
7 10 6 5 5 5 4 3 2 3 1 2 1 6 6 3 9 12 12 11 13 8 9 10 13 15 16 15 14 12 12 12 11 9 8 8 7 7 6 6 6 5 6 6 6 5 4 4 4 4 5 3 3 2 2 2 2 1 1 1 1 2 3 3 4 4 5 5 6 7 7 8 8 9 9 9 8 9 7 7 6 6 5 6 6 6 6 6 7 6 6 7 9 7 8 11 12
6 3 7 4 6 5 5 5 7 5 1 4 3 6 4 6 2 3 2 2 3 6 6 6 8 11 14 14 12 13 12 11 9 9 9 9 8 8 7 6 5 6 7 6 5 5 5 5 5 5 5 4 3 2 2 1 0 0 0 1 1 1 3 3 3 3 4 6 6 7 7 7 8 8 8 8 9 9 9 7 7 6 6 6 5 6 5 5 6 6 6 7 7 7 9 9 10
2 1 2 3 6 2 4 2 2 4 4 4 4 4 1 5 2 2 2 5 5 5 7 7 9 9 10 10 12 12 12 12 11 10 9 8 8 7 6 6 6 6 7 6 6 6 6 5 4 4 4 4 3 3 2 1 1 1 1 3 2 2 3 3 3 1 2 4 5 6 7 7 7 7 8 8 9 8 8 9 8 7 6 5 5 5 5 5 5 6 6 7 9 7 8 11 12
5 4 6 1 3 5 6 3 3 2 1 3 2 4 4 5 5 3 3 4 7 5 8 9 10 11 12 11 12 12 12 11 11 11 10 10 8 7 7 7 6 6 7 7 7 7 6 5 5 5 4 4 3 3 2 1 1 2 2 2 3 3 4 4 5 5 4 3 4 4 4 6 6 6 7 7 8 8 8 8 8 7 6 5 5 5 5 5 5 6 6 7 9 9 8 9 10
8 5 5 6 1 2 1 3 1 1 4 2 3 5 3 2 2 2 3 6 6 6 9 11 10 11 13 13 13 13 13 13 12 10 9 9 9 9 8 7 8 8 8 8 7 6 4 4 5 5 4 4 4 3 3 2 1 2 2 3 3 3 4 4 4 5 5 4 4 4 4 4 5 5 6 6 7 8 7 7 6 6 6 5 6 6 6 6 6 6 7 8 8 9 10 9 9
2 1 10 4 3 5 2 2 3 3 5 3 3 3 5 5 4 1 4 7 7 7 8 10 12 13 15 14 14 12 11 10 10 11 9 9 8 9 8 8 7 7 6 6 5 5 5 4 4 4 4 3 2 2 2 1 1 1 2 3 4 3 3 4 4 4 4 5 6 5 5 5 5 5 6 6 6 7 7 7 6 6 6 7 7 7 7 7 8 8 8 8 8 9 9 10 10
6 8 5 3 2 2 5 1 1 2 0 2 2 1 4 6 3 5 4 6 5 7 9 12 15 15 13 13 14 14 13 12 11 11 11 10 10 10 10 9 9 8 7 6 6 6 7 6 5 5 4 3 3 3 2 3 2 2 3 3 4 3 4 4 4 4 4 5 6 6 6 6 5 5 5 6 6 7 7 7 7 7 8 8 8 8 8 9 9 9 9 9 9 11 12 12 12
4 6 3 2 4 1 2 2 0 2 3 2 1 4 4 3 5 5 6 4 8 11 11 11 12 13 13 12 12 12 12 12 11 11 11 10 10 9 8 7 6 6 5 6 6 7 7 5 6 6 6 5 4 3 3 3 2 3 3 4 4 3 4 4 4 4 5 5 5 5 5 5 5 5 5 5 6 7 6 6 7 8 8 9 9 10 9 9 9 10 10 11 11 11 12 13 12
9 9 8 7 8 6 4 3 2 1 2 2 4 6 4 1 2 6 4 2 6 10 10 10 11 11 12 11 12 11 10 10 11 11 11 11 9 8 7 5 4 5 7 7 6 6 6 7 6 6 5 5 5 3 3 3 3 3 4 4 4 4 4 4 5 4 5 5 4 5 5 5 6 6 5 6 6 6 5 6 7 8 8 8 8 9 9 9 10 10 11 8 9 11 12 13 13
Wind_Direction
190 137 116 126 259 345 266 331 77 10 66 56 74 62 85 80 112 127 117 137 135 132 120 113 130 144 332 75 92 87 29 30 7 264 101 114 149 147 158 127 125 118 124 128 120 124 125 139 135 127 128 127 124 123 127 133 132 132 133 132 133 133 133 131 130 129 130 130 128 127 127 126 126 125 120 117 116 115 115 115 116 116 115 114 117 116 117 115 114 113 112 114 116 117 116 116 115
151 140 128 150 79 292 71 311 87 70 75 85 62 314 97 119 145 129 142 146 115 139 118 110 104 77 87 105 117 120 49 27 22 84 94 124 136 137 138 129 132 123 120 131 123 127 134 124 134 130 132 132 132 125 124 129 129 131 132 131 130 131 131 131 131 131 131 131 130 129 128 126 125 122 120 116 114 113 112 111 112 112 111 113 112 113 111 112 110 110 111 112 115 118 118 114 108
144 152 142 167 196 292 88 259 71 2 75 77 69 57 127 137 121 132 134 123 118 120 117 109 99 82 105 141 64 351 79 66 106 109 112 139 140 151 149 141 126 124 121 129 130 131 132 133 132 125 129 133 127 125 125 130 131 132 132 130 131 129 130 132 132 132 132 133 131 128 125 124 123 122 120 119 118 116 115 117 116 117 116 114 113 111 110 110 109 109 109 107 110 110 108 104 103
141 156 140 222 167 192 167 67 62 60 68 57 95 76 105 108 105 91 98 118 123 127 125 120 95 349 292 78 87 83 93 98 109 123 130 153 143 145 147 147 129 128 125 131 134 132 132 141 137 131 124 126 126 131 132 131 133 137 135 133 132 132 133 132 132 132 132 131 128 125 123 124 124 123 122 121 120 121 121 122 122 119 117 115 112 109 108 104 106 102 101 103 102 103 102 100 99
144 148 236 328 269 66 36 53 87 346 71 347 89 79 93 85 103 106 105 113 120 131 117 114 96 55 63 72 46 18 93 107 122 126 130 130 132 142 143 138 138 130 124 127 130 124 129 130 130 126 126 124 131 131 129 128 132 133 133 135 136 135 133 133 132 132 131 130 128 126 127 126 125 123 121 121 122 123 125 125 125 123 120 115 110 107 103 102 100 100 97 97 106 105 103 101 98
121 159 231 304 31 152 200 106 65 62 67 94 108 91 87 111 116 116 108 92 83 89 105 105 113 151 76 40 18 95 133 131 143 130 132 136 138 139 138 136 136 135 127 128 123 123 133 135 130 123 119 121 127 127 129 133 133 132 132 132 134 134 133 133 133 132 131 131 129 130 129 127 126 125 125 123 125 124 125 124 124 122 118 115 110 105 104 101 96 91 88 90 93 100 98 94 99
140 183 108 188 132 231 59 65 63 68 72 303 105 118 123 119 118 125 122 104 76 76 75 102 114 121 98 110 77 60 24 109 147 141 144 140 139 141 141 137 139 136 136 133 130 129 129 134 132 129 125 125 127 127 129 131 132 131 131 134 134 135 135 134 133 133 132 131 133 132 131 130 130 130 129 130 129 128 128 127 123 120 115 112 110 106 101 99 95 87 95 92 82 80 92 96 92
104 290 0 347 41 319 53 58 70 16 77 5 102 121 129 127 133 112 125 138 118 109 95 104 81 86 74 237 103 68 83 99 115 138 133 142 142 142 145 144 142 141 134 133 132 133 139 129 131 132 132 132 130 128 131 132 132 133 136 138 141 138 137 136 135 135 136 136 136 135 135 133 133 133 134 134 134 132 128 125 120 109 106 104 106 104 102 102 99 99 85 85 86 89 85 81 90
218 285 170 253 63 49 83 40 67 63 87 119 101 105 124 130 126 99 89 100 103 99 122 153 121 44 96 90 81 90 91 110 123 132 141 142 144 145 146 145 141 138 134 136 134 136 136 138 140 142 144 138 134 132 136 134 136 137 139 142 139 138 139 137 137 138 137 138 138 137 135 136 133 135 137 135 135 134 133 126 123 117 111 109 109 108 108 101 102 103 99 87 87 79 105 107 87
129 329 54 60 238 83 12 85 65 49 91 109 133 134 132 137 98 102 115 113 104 92 67 97 102 112 119 101 115 105 119 125 133 135 142 145 144 147 146 144 139 139 138 137 139 141 143 149 151 151 143 143 140 138 139 137 139 140 140 141 140 140 140 141 138 138 139 139 137 136 136 134 135 135 135 136 135 133 131 130 125 124 121 118 106 108 101 99 91 95 91 94 74 75 24 55 140
13 31 129 208 89 109 94 112 72 97 106 116 109 126 123 115 112 98 95 110 121 112 117 98 95 109 99 83 70 94 130 134 143 143 146 147 147 149 147 144 140 142 141 142 141 144 147 152 154 149 146 144 142 143 144 143 143 143 142 141 140 141 141 137 140 141 140 140 138 139 139 140 140 139 139 136 137 136 135 136 138 141 130 124 121 101 108 105 108 88 82 73 62 46 16 332 347
63 355 249 78 70 91 105 83 82 95 111 130 119 139 144 126 123 118 128 122 127 134 124 199 130 117 96 112 110 134 139 146 145 143 147 147 149 150 147 147 143 142 143 141 142 145 143 149 151 150 152 150 148 149 150 146 144 144 145 145 146 145 145 145 145 146 143 144 145 148 146 145 143 143 143 145 142 149 151 147 152 157 163 145 157 191 266 353 1 28 54 24 61 41 9 341 354
14 218 53 80 64 48 137 126 101 119 123 118 144 131 141 142 147 131 127 118 156 157 67 124 141 149 106 107 123 137 148 146 147 148 149 150 147 149 150 148 146 144 144 144 144 142 146 146 145 153 151 150 150 150 155 153 150 150 149 151 152 151 153 151 150 149 153 155 152 151 151 148 145 149 156 153 155 164 166 165 175 206 227 220 270 294 303 302 323 307 332 323 341 3 29 6 25
230 208 320 96 251 103 135 94 146 146 103 102 121 138 118 123 117 125 124 125 111 351 90 119 122 107 102 113 139 153 152 151 151 151 149 146 147 148 149 148 147 146 147 148 146 145 145 148 148 153 147 150 146 150 158 159 157 158 158 159 159 160 159 157 158 161 161 162 164 161 162 159 158 162 168 166 171 175 191 190 210 239 253 283 309 322 320 317 327 346 344 350 342 12 18 33 24
235 168 66 109 102 136 53 162 171 142 110 150 132 143 119 78 127 124 115 111 65 102 122 129 114 242 173 157 168 167 156 155 152 150 147 144 144 145 148 147 147 148 151 152 149 151 151 150 152 146 147 143 150 153 159 169 165 168 166 166 167 166 166 164 169 165 168 168 170 170 168 167 171 177 174 179 186 192 196 212 232 254 280 320 337 339 323 341 7 349 351 344 340 354 350 6 14
230 188 12 124 132 155 152 167 215 159 123 157 140 129 100 106 114 117 27 87 116 112 255 125 233 346 146 173 152 147 150 150 150 147 144 141 140 142 144 148 150 151 154 155 156 157 156 157 154 150 150 150 153 158 156 172 169 170 174 173 173 172 173 173 173 171 172 173 175 172 172 177 180 184 184 191 196 199 200 226 211 245 280 21 18 329 334 350 1 352 12 5 316 325 311 15 321
174 277 207 99 132 180 159 169 169 160 116 138 155 153 135 123 83 70 87 98 110 75 63 18 36 67 139 123 131 135 144 146 146 146 143 141 144 146 150 152 154 157 160 163 162 163 163 159 155 152 153 151 158 153 170 173 172 173 177 180 178 178 181 180 179 179 178 179 177 181 180 186 188 191 193 203 197 209 210 210 220 221 252 82 252 261 301 315 326 19 27 195 315 303 299 290 282
199 214 138 108 90 177 167 172 171 113 141 155 175 168 129 127 123 116 97 81 84 83 73 73 68 75 97 115 123 135 142 147 150 150 151 150 152 154 160 162 165 167 169 166 169 169 167 166 158 156 162 161 161 158 169 177 176 179 180 182 183 183 184 183 183 192 187 189 189 187 193 194 198 201 205 211 215 217 219 223 223 224 204 125 222 238 269 289 313 346 350 304 291 259 278 284 280
203 123 302 117 193 46 156 144 148 147 159 159 154 122 122 107 135 156 112 114 104 85 71 88 91 94 109 118 127 137 145 148 153 155 154 156 161 159 162 165 173 169 173 173 172 175 174 169 168 164 175 174 175 172 171 173 170 170 178 179 185 187 188 189 197 199 201 197 197 203 201 211 208 211 213 214 227 224 232 217 234 242 234 167 208 214 213 251 264 271 282 269 281 273 257 261 259
130 251 113 123 201 77 259 165 170 260 147 137 111 82 100 106 96 151 132 123 124 108 120 107 114 123 128 132 135 142 148 150 155 157 158 160 165 164 162 168 172 176 175 175 173 177 172 176 174 178 181 184 185 179 163 152 150 163 182 185 190 191 192 194 201 205 207 205 206 204 212 220 221 223 227 227 241 237 233 230 231 227 222 218 219 213 208 235 245 253 254 241 239 262 248 254 256
110 205 137 148 162 144 84 87 59 83 112 108 109 121 98 76 77 105 131 134 99 125 146 156 146 139 137 142 142 148 151 151 157 160 161 164 168 170 169 174 176 174 174 170 173 180 176 181 182 184 186 188 191 184 173 176 172 182 186 194 197 199 201 198 200 202 208 208 213 215 220 220 226 228 227 228 232 238 241 238 225 220 203 212 234 211 207 206 226 188 192 193 230 242 232 230 246
137 18 353 102 148 81 58 83 84 95 103 105 123 117 95 113 71 82 33 32 46 28 168 147 143 143 143 146 147 148 152 155 159 164 167 170 172 175 174 176 178 175 169 179 181 178 185 187 187 187 189 189 191 192 195 181 194 195 189 194 204 207 208 209 209 207 209 210 216 221 224 225 229 232 229 233 235 238 241 240 234 229 224 220 220 235 221 192 185 189 182 177 189 231 238 237 240
122 41 72 43 351 104 103 100 109 119 114 113 97 82 97 86 80 36 60 45 58 90 117 131 138 141 141 140 144 149 154 160 166 170 172 174 174 177 177 181 183 182 180 185 179 182 186 195 193 189 194 187 189 194 195 201 207 209 202 200 206 210 214 215 216 219 219 215 217 219 223 225 229 236 236 237 240 240 243 240 237 233 232 236 238 241 237 220 207 202 193 196 197 217 241 241 223
94 104 55 55 90 93 102 108 107 96 100 89 103 117 94 124 91 47 70 82 97 107 118 128 133 139 142 143 151 153 157 163 169 173 175 180 179 181 180 181 183 180 186 184 183 187 189 193 193 194 196 193 185 193 197 210 214 212 213 204 213 216 216 220 221 223 223 222 222 224 227 232 231 232 238 240 243 245 244 246 244 241 237 239 242 254 255 244 225 218 220 217 216 218 233 254 257
95 99 79 92 75 87 105 106 100 96 94 111 112 92 73 60 83 74 68 102 113 114 122 131 138 142 146 145 150 154 157 165 168 170 174 179 182 181 186 186 181 182 191 190 191 194 193 193 192 198 199 202 196 188 204 209 219 220 213 211 213 211 218 222 223 223 227 227 225 227 228 235 238 241 240 241 246 251 250 249 249 246 243 245 243 246 252 250 241 228 223 226 227 223 225 241 256
43 80 98 97 94 101 111 102 102 106 106 108 91 89 93 93 88 60 90 113 118 124 127 135 142 147 151 153 154 159 164 169 170 174 177 179 177 179 190 192 189 196 196 193 194 197 195 193 199 199 201 200 204 205 209 213 219 224 219 218 219 217 226 229 229 232 231 233 233 230 232 237 243 243 245 246 248 252 254 252 253 252 248 241 243 248 244 247 247 237 228 226 227 226 228 231 246
107 90 86 93 100 109 99 110 104 96 94 111 116 103 97 56 292 102 101 126 129 127 132 142 148 154 157 157 161 165 170 172 175 171 174 179 183 193 194 196 200 201 193 197 193 192 191 196 199 202 201 201 203 209 209 215 218 223 228 229 225 224 228 230 236 238 239 237 239 235 235 237 243 247 247 248 247 248 251 249 247 246 245 242 235 249 253 253 251 247 236 228 221 224 231 225 232
111 105 87 79 85 77 113 101 99 109 101 127 109 102 83 63 55 95 138 141 140 132 139 150 156 157 160 162 165 170 174 173 176 178 180 184 189 195 195 197 201 200 198 201 197 185 191 198 199 202 205 204 206 209 206 212 213 219 226 229 232 232 231 234 237 240 241 242 242 240 237 238 238 243 241 241 241 238 240 246 248 249 251 245 238 238 248 254 258 256 247 238 231 226 230 230 227
128 119 97 95 99 109 117 117 120 40 135 194 329 107 60 39 91 129 141 147 148 138 143 157 163 165 165 164 168 174 178 178 183 190 192 191 191 196 198 199 195 195 203 200 194 186 194 197 201 202 206 208 211 214 212 216 215 218 221 226 232 237 236 239 241 240 239 240 238 239 242 242 239 242 236 236 240 243 246 245 248 247 249 244 237 229 235 255 262 260 251 238 232 229 227 227 221
106 74 119 114 119 128 167 66 127 231 145 207 337 120 56 67 116 144 151 153 149 144 148 158 169 172 171 171 175 179 184 187 196 199 193 195 196 198 203 196 196 196 189 186 186 193 196 201 204 208 209 211 214 217 216 217 220 226 229 232 235 238 243 244 245 246 244 241 239 234 237 240 241 247 253 250 242 249 248 245 245 247 245 241 235 225 228 233 242 248 252 239 239 238 236 232 229
129 101 117 141 157 166 177 203 152 203 116 305 256 120 132 114 131 153 158 162 161 158 159 163 168 177 177 176 182 186 190 198 201 201 203 202 199 205 208 199 195 199 196 187 190 190 196 206 209 213 214 216 215 219 219 220 222 231 236 242 244 246 248 249 253 254 256 258 256 253 246 246 239 249 258 260 258 256 255 248 242 243 243 239 236 230 231 232 235 240 244 248 244 237 238 240 240
122 139 147 169 202 150 179 211 206 201 150 303 313 106 129 134 143 160 166 170 175 163 166 171 173 181 185 185 186 190 192 197 206 212 210 207 206 208 206 205 197 200 205 199 187 187 198 208 214 225 223 225 226 227 228 231 233 237 240 242 248 249 250 251 252 254 256 255 256 256 257 255 249 215 251 249 256 256 256 255 249 247 243 234 233 231 227 237 234 233 236 238 247 244 234 235 235
357 269 150 178 207 156 190 214 211 230 330 349 323 136 137 153 151 158 169 174 181 171 171 178 182 185 190 191 194 196 188 192 205 212 210 208 208 210 206 207 206 205 203 201 196 185 191 204 217 227 233 235 237 233 232 235 239 241 242 247 249 250 252 251 254 256 255 257 254 253 249 244 256 234 211 255 248 242 240 246 254 257 258 258 259 252 245 240 237 234 232 227 236 248 241 239 233
180 353 172 166 184 155 195 114 206 176 265 306 8 137 121 111 150 156 167 179 180 184 179 180 191 193 194 198 202 198 199 198 204 209 210 211 214 210 212 208 209 207 206 209 206 202 201 210 219 225 230 230 229 233 236 242 245 247 249 249 254 257 257 257 257 258 260 256 253 254 249 251 238 245 221 216 241 240 243 246 252 246 252 263 248 244 246 245 236 236 240 233 227 233 245 243 237
178 184 165 171 251 189 183 184 171 156 185 177 98 95 124 138 144 160 166 177 188 191 186 186 194 201 198 203 208 211 206 207 205 201 208 210 219 213 215 209 198 198 203 200 178 192 196 200 219 220 226 228 226 218 218 232 247 247 246 249 249 249 252 252 253 256 258 260 260 260 262 264 261 257 253 233 241 235 240 246 248 246 221 235 243 243 251 247 249 242 238 240 229 228 240 244 241
189 180 183 170 181 198 209 167 34 182 160 159 161 145 148 155 154 158 158 171 195 186 179 182 189 205 203 205 211 215 218 209 138 120 155 183 193 185 188 181 177 181 173 161 177 184 193 198 202 220 222 223 221 221 213 218 240 251 251 255 268 267 270 276 275 259 258 253 258 259 258 256 257 255 250 254 250 247 245 246 242 249 248 234 246 233 234 238 236 246 248 246 244 231 228 243 244
123 117 153 192 190 161 84 68 88 153 126 64 353 130 147 156 164 163 162 150 170 189 193 193 193 199 207 205 205 210 214 207 90 129 136 146 153 156 163 166 169 165 170 180 186 197 204 210 205 218 227 221 224 205 211 211 239 250 263 259 263 272 265 261 263 266 264 263 263 266 268 270 273 272 272 268 256 245 244 249 245 244 241 237 236 240 239 236 202 191 228 233 243 236 228 233 240
154 174 196 160 204 182 141 130 164 351 228 105 161 132 139 144 150 160 160 174 184 200 205 201 199 203 204 204 202 196 176 126 146 149 148 150 158 160 166 173 174 177 182 183 195 197 196 203 220 229 237 231 230 225 194 195 243 255 273 272 254 267 265 268 266 256 257 263 259 254 254 264 265 265 265 263 262 258 253 245 246 249 244 238 236 229 236 235 210 210 222 236 228 247 246 228 225
148 182 174 176 173 96 101 112 38 47 206 117 163 146 138 145 165 161 191 193 184 180 203 217 214 206 203 204 199 178 175 173 168 160 160 164 157 164 172 176 182 195 178 188 188 186 191 204 219 239 237 238 223 198 182 216 189 167 238 260 254 250 249 264 274 281 278 271 270 269 272 273 270 267 266 267 265 261 258 256 253 248 247 238 224 225 230 232 224 225 222 222 224 237 248 237 217
153 150 170 208 153 164 162 136 65 43 243 154 171 144 129 120 139 185 203 196 186 186 196 217 219 226 216 203 193 190 183 171 176 173 172 172 171 172 173 178 180 180 176 177 188 195 176 187 170 174 197 192 145 159 185 184 198 193 212 241 254 260 291 293 274 275 274 269 266 266 274 270 267 271 270 270 272 271 265 259 262 262 256 236 217 225 227 235 233 230 225 209 209 222 225 230 215
203 190 193 167 169 199 162 151 118 90 58 133 136 124 166 195 191 200 193 198 200 195 192 197 213 231 254 229 200 204 192 177 167 168 167 171 181 186 188 187 181 191 190 172 157 137 124 103 107 114 123 130 135 142 155 157 158 166 194 225 253 275 283 281 286 274 264 267 274 276 287 291 290 290 288 283 274 264 269 273 268 268 269 231 208 225 235 235 236 232 234 209 210 221 231 232 213
174 228 219 202 174 132 109 129 139 152 125 173 159 155 231 190 213 210 182 189 212 191 206 207 200 208 214 216 211 203 207 189 177 173 172 176 179 173 170 178 187 188 174 139 130 121 111 124 139 146 140 140 142 139 145 153 158 171 185 199 217 232 261 270 282 304 308 310 310 316 308 304 303 298 293 289 287 286 287 286 283 277 267 244 215 217 227 233 240 241 228 215 215 223 240 244 247
182 188 188 173 153 134 138 150 152 170 201 181 250 234 207 153 211 211 201 205 211 184 217 213 198 201 204 211 204 198 197 185 182 172 172 174 172 169 172 177 175 172 137 116 120 126 138 147 155 150 134 127 129 133 150 152 156 169 184 208 239 245 266 272 287 296 300 300 305 305 307 308 307 305 301 296 291 288 288 288 287 285 280 250 228 232 232 234 237 238 231 208 226 239 241 242 235
169 102 141 145 145 149 159 161 173 82 68 90 110 328 262 235 218 208 200 209 217 217 216 214 203 201 203 207 204 200 198 192 179 183 189 188 178 182 177 169 162 145 131 139 141 137 148 149 143 139 137 135 136 144 155 164 155 161 168 181 203 235 263 285 292 298 300 304 305 307 309 307 307 305 303 299 295 292 289 288 287 285 277 263 242 239 239 243 247 243 217 201 210 211 224 231 231
76 92 127 138 153 154 158 154 105 126 152 160 200 207 243 256 132 20 185 210 225 226 220 212 206 202 202 204 205 204 203 198 191 186 192 189 180 179 170 161 135 134 142 153 145 145 146 143 136 132 129 132 131 129 127 126 125 125 121 128 202 302 306 308 310 306 307 309 306 308 305 307 308 307 302 298 295 293 293 293 294 288 278 266 247 243 247 248 249 246 225 221 222 224 214 220 221
52 107 83 76 70 54 53 111 109 113 216 213 195 187 227 248 129 163 188 223 230 227 219 211 202 200 198 199 203 205 203 202 205 204 194 186 175 169 160 127 151 151 137 136 140 146 150 139 136 132 135 139 128 121 117 115 118 123 103 83 358 342 335 315 311 303 300 307 304 307 310 306 308 311 314 307 298 294 295 296 287 278 280 286 271 261 254 255 253 243 244 224 224 213 222 220 227
144 110 99 88 74 81 64 46 63 110 234 251 175 188 218 271 196 190 165 209 213 218 205 201 197 198 198 198 198 201 203 202 201 203 196 185 167 155 153 169 156 152 149 150 152 161 156 148 145 140 150 140 133 131 128 121 125 111 90 54 322 313 311 303 308 307 313 317 316 316 317 317 315 318 321 320 313 311 314 311 297 289 290 286 273 269 261 257 243 237 245 224 223 210 228 227 229
148 125 123 106 74 92 86 76 19 223 236 78 349 198 195 228 235 199 211 23 234 216 201 195 197 195 193 193 198 199 200 201 197 198 194 189 173 173 169 169 168 158 153 156 155 154 158 157 157 150 160 158 158 158 157 150 153 151 153 250 307 302 292 289 304 311 318 317 315 312 314 310 313 318 319 321 318 325 326 317 311 304 300 297 286 282 275 271 270 253 243 237 237 197 222 228 227
136 124 149 139 113 160 164 163 201 211 235 72 342 164 178 235 250 297 209 222 217 224 225 206 197 193 189 190 192 192 197 198 196 196 192 191 191 182 181 170 162 165 167 163 158 159 155 165 173 153 137 141 130 131 112 112 110 98 344 312 301 300 296 297 302 303 311 311 313 315 316 315 317 317 321 320 323 328 325 317 318 310 303 298 294 282 277 264 253 248 248 246 234 229 203 213 230
162 158 147 147 156 177 192 165 355 317 268 87 75 183 245 313 276 261 241 222 223 224 231 227 204 190 185 188 188 189 195 196 196 192 196 194 191 189 180 172 174 169 165 165 163 160 164 176 180 155 138 139 128 129 130 130 139 167 210 255 299 303 296 299 300 304 312 318 319 317 317 318 315 314 315 316 319 322 320 318 312 308 301 295 296 289 282 272 259 249 242 241 252 241 221 212 232
183 32 181 177 162 171 199 175 218 219 127 77 107 163 223 206 161 50 318 13 276 233 236 235 217 199 188 187 183 187 190 193 189 191 197 197 193 192 184 178 178 176 172 172 171 174 177 180 173 156 142 139 142 147 144 140 162 253 323 296 282 281 282 281 281 292 319 323 320 315 313 314 312 312 312 312 315 314 316 315 316 311 311 309 303 299 299 288 277 271 266 258 258 244 228 220 229
79 207 36 183 206 153 256 82 247 131 142 138 165 235 254 227 65 289 310 281 260 244 236 223 215 200 181 176 181 187 192 191 190 193 196 196 192 189 185 181 181 177 174 181 183 181 190 185 169 156 150 149 168 165 163 185 254 313 330 325 321 301 292 295 292 300 316 316 313 309 309 310 311 310 309 308 310 312 313 313 314 314 317 315 314 312 305 299 294 284 275 269 263 259 249 232 235
163 151 203 141 40 115 106 116 54 25 309 202 105 273 236 281 247 228 247 252 243 220 223 216 208 195 184 191 188 191 192 188 184 190 191 189 188 189 188 183 180 179 182 191 192 190 194 179 175 172 169 175 187 186 187 202 250 290 315 309 305 303 306 315 320 324 324 308 296 293 297 313 313 311 310 309 309 312 312 314 314 318 319 319 316 315 312 309 307 298 287 282 279 274 262 258 247
118 207 150 117 271 13 141 198 109 191 242 197 177 239 262 347 287 132 230 237 229 214 206 207 198 185 190 195 191 191 192 189 183 182 184 186 188 187 185 182 183 185 191 194 194 191 192 191 190 187 184 195 187 193 200 206 255 279 292 292 291 293 298 305 310 310 313 305 290 275 279 285 297 309 310 307 308 309 310 309 308 309 313 313 317 318 321 320 313 305 294 287 283 281 277 272 258
262 9 143 182 156 193 30 132 184 196 224 236 188 275 267 224 247 172 231 225 220 202 196 195 195 195 199 196 195 191 187 177 175 184 184 188 190 188 182 184 182 186 195 193 188 189 194 196 192 206 208 204 201 198 200 206 231 267 276 279 285 285 281 290 292 294 295 294 296 293 289 290 291 298 305 307 308 307 306 306 299 303 310 315 320 322 321 318 317 308 304 296 289 280 274 272 266
67 126 122 349 272 93 159 148 34 269 219 233 165 205 272 185 221 215 246 224 190 178 191 204 203 202 198 196 192 189 186 184 181 182 185 187 191 191 186 183 182 189 195 193 194 198 204 196 193 207 215 215 216 225 213 239 218 230 253 263 265 270 277 280 282 284 284 286 291 291 289 289 289 297 295 306 303 303 306 306 307 312 314 313 316 317 317 317 316 312 307 302 295 292 286 277 273
141 170 154 119 61 335 50 77 211 246 180 222 302 251 237 195 203 202 238 215 191 184 196 204 206 206 204 201 193 188 186 181 182 181 182 185 186 185 180 179 177 180 187 193 197 205 207 193 201 213 217 220 228 233 231 243 236 239 250 266 275 273 276 272 271 268 274 285 289 289 288 292 295 283 291 294 299 300 301 303 305 306 307 311 311 314 318 319 319 318 314 308 306 300 292 290 283
166 169 191 161 141 147 200 188 122 249 207 189 199 258 278 202 154 216 244 229 198 200 196 200 208 206 203 201 201 194 183 180 179 180 183 186 181 177 170 166 164 183 201 198 194 206 208 209 216 218 227 231 241 231 236 248 249 263 271 278 284 285 282 275 270 271 274 282 291 292 293 292 287 289 281 287 285 291 293 301 302 303 303 305 310 313 316 318 321 321 321 321 314 308 301 295 291